| time (UTC) | temp C | wind direction | speed KPH | gust KPH | rain 1hr cm | rain 24hr cm | rain mn cm | humidity % | barometer mb |
| 20260503213046 | 28 | 306 | 1.6 | 14.5 | 0.00 | 0.00 | 0.00 | 40 | 1008.9 |
| 20260503211547 | 28 | 75 | 4.8 | 16.1 | 0.00 | 0.00 | 0.00 | 39 | 1009.0 |
| 20260503210037 | 27 | 69 | 4.8 | 12.9 | 0.00 | 0.00 | 0.00 | 46 | 1009.1 |
| 20260503204535 | 27 | 67 | 4.8 | 14.5 | 0.00 | 0.00 | 0.00 | 42 | 1009.4 |
| 20260503203032 | 27 | 71 | 3.2 | 12.9 | 0.00 | 0.00 | 0.00 | 45 | 1009.6 |
| 20260503201529 | 26 | 281 | 1.6 | 12.9 | 0.00 | 0.00 | 0.00 | 49 | 1009.7 |
| 20260503200026 | 26 | 86 | 4.8 | 14.5 | 0.00 | 0.00 | 0.00 | 52 | 1009.9 |
| 20260503194523 | 26 | 59 | 6.4 | 16.1 | 0.00 | 0.00 | 0.00 | 49 | 1010.0 |
| 20260503193019 | 25 | 76 | 4.8 | 14.5 | 0.00 | 0.00 | 0.00 | 44 | 1010.2 |
| 20260503191515 | 25 | 101 | 8.0 | 14.5 | 0.00 | 0.00 | 0.00 | 54 | 1010.3 |
| 20260503190032 | 24 | 70 | 9.7 | 17.7 | 0.00 | 0.00 | 0.00 | 49 | 1010.3 |
| 20260503184509 | 24 | 100 | 4.8 | 12.9 | 0.00 | 0.00 | 0.00 | 56 | 1010.4 |
| 20260503183008 | 23 | 69 | 4.8 | 12.9 | 0.00 | 0.00 | 0.00 | 55 | 1010.6 |
| 20260503181600 | 23 | 96 | 3.2 | 12.9 | 0.00 | 0.00 | 0.00 | 57 | 1010.7 |
| 20260503180100 | 22 | 115 | 3.2 | 12.9 | 0.00 | 0.00 | 0.00 | 58 | 1010.8 |
| 20260503174552 | 22 | 64 | 3.2 | 11.3 | 0.00 | 0.00 | 0.00 | 59 | 1010.9 |
| 20260503173109 | 21 | 313 | 8.0 | 19.3 | 0.00 | 0.00 | 0.00 | 59 | 1011.0 |
| 20260503171549 | 21 | 79 | 9.7 | 16.1 | 0.00 | 0.00 | 0.00 | 55 | 1011.2 |
| 20260503081534 | 16 | 319 | 0.0 | 3.2 | 0.00 | 0.03 | 0.00 | 74 | 1012.0 |
| 20260503071517 | 16 | 290 | 0.0 | 0.0 | 0.00 | 0.03 | 0.00 | 76 | 1012.0 |
| 20260503054509 | 16 | 279 | 1.6 | 8.0 | 0.00 | 0.03 | 0.03 | 81 | 1012.0 |
| 20260503053011 | 16 | 112 | 0.0 | 6.4 | 0.00 | 0.03 | 0.03 | 79 | 1012.0 |
| 20260503051508 | 16 | 294 | 3.2 | 11.3 | 0.00 | 0.03 | 0.03 | 79 | 1012.0 |
| 20260503050011 | 16 | 275 | 1.6 | 6.4 | 0.00 | 0.03 | 0.03 | 80 | 1012.0 |
| 20260503044509 | 15 | 269 | 4.8 | 9.7 | 0.00 | 0.03 | 0.03 | 80 | 1011.9 |
| 20260503043007 | 15 | 315 | 1.6 | 4.8 | 0.00 | 0.03 | 0.03 | 81 | 1012.2 |
| 20260503041506 | 15 | 315 | 0.0 | 3.2 | 0.00 | 0.03 | 0.03 | 81 | 1012.3 |
| 20260503040005 | 15 | 315 | 1.6 | 6.4 | 0.00 | 0.03 | 0.03 | 81 | 1012.1 |
| 20260503034505 | 15 | 301 | 3.2 | 12.9 | 0.00 | 0.03 | 0.03 | 81 | 1011.9 |
| 20260503033006 | 15 | 347 | 8.0 | 14.5 | 0.00 | 0.03 | 0.03 | 81 | 1011.7 |
| 20260503031504 | 16 | 321 | 6.4 | 12.9 | 0.00 | 0.03 | 0.03 | 81 | 1011.8 |
| 20260503030004 | 16 | 193 | 1.6 | 8.0 | 0.00 | 0.03 | 0.03 | 79 | 1011.9 |
| 20260503024504 | 16 | 175 | 3.2 | 12.9 | 0.00 | 0.03 | 0.03 | 78 | 1011.9 |
| 20260503023003 | 16 | 195 | 8.0 | 17.7 | 0.00 | 0.03 | 0.03 | 78 | 1011.8 |
| 20260503021502 | 17 | 167 | 6.4 | 20.9 | 0.00 | 0.03 | 0.03 | 76 | 1011.9 |
| 20260503020002 | 18 | 188 | 0.0 | 3.2 | 0.00 | 0.03 | 0.03 | 78 | 1011.5 |
| 20260503014501 | 18 | 154 | 0.0 | 0.0 | 0.00 | 0.03 | 0.03 | 79 | 1011.0 |
| 20260503013101 | 18 | 298 | 0.0 | 1.6 | 0.00 | 0.03 | 0.03 | 78 | 1011.2 |
| 20260503011633 | 18 | 154 | 1.6 | 4.8 | 0.00 | 0.03 | 0.03 | 76 | 1011.2 |
| 20260503010100 | 18 | 79 | 0.0 | 3.2 | 0.00 | 0.03 | 0.03 | 75 | 1011.1 |
| 20260503010001 | 18 | 79 | 0.0 | 3.2 | 0.00 | 0.03 | 0.03 | 75 | 1011.0 |
| 20260503004605 | 18 | 79 | 1.6 | 3.2 | 0.00 | 0.03 | 0.03 | 74 | 1011.0 |
| 20260503003059 | 18 | 79 | 3.2 | 4.8 | 0.00 | 0.03 | 0.03 | 74 | 1011.0 |
| 20260503001558 | 19 | 42 | 0.0 | 3.2 | 0.00 | 0.03 | 0.03 | 74 | 1011.1 |
| 20260503000056 | 19 | 351 | 1.6 | 4.8 | 0.00 | 0.03 | 0.03 | 70 | 1011.1 |
| 20260502234556 | 18 | 271 | 1.6 | 4.8 | 0.00 | 0.03 | 0.03 | 70 | 1011.2 |
| 20260502233055 | 18 | 78 | 3.2 | 9.7 | 0.00 | 0.03 | 0.03 | 73 | 1011.5 |
| 20260502231552 | 18 | 89 | 0.0 | 9.7 | 0.00 | 0.03 | 0.03 | 72 | 1011.7 |
| 20260502230050 | 18 | 46 | 4.8 | 9.7 | 0.00 | 0.03 | 0.03 | 72 | 1011.8 |
| 20260502224602 | 18 | 294 | 4.8 | 12.9 | 0.00 | 0.03 | 0.03 | 71 | 1012.0 |
| 20260502223045 | 17 | 34 | 3.2 | 9.7 | 0.00 | 0.03 | 0.03 | 78 | 1012.3 |
| 20260502221542 | 16 | 82 | 1.6 | 8.0 | 0.00 | 0.03 | 0.03 | 81 | 1012.5 |
| 20260502220042 | 16 | 64 | 3.2 | 11.3 | 0.00 | 0.03 | 0.03 | 77 | 1012.7 |
| 20260502214540 | 17 | 66 | 4.8 | 12.9 | 0.00 | 0.03 | 0.03 | 74 | 1012.9 |